This is the latest recevied weather packets stored in our database for station/object WV8BRW. If no packets are shown the sender has not sent any weather packets the latest 10 day(s).
| Time | Temp. | Humidity | Pressure | Rain* | Wind** | Luminosity | Snow |
|---|---|---|---|---|---|---|---|
| 1777129623 | 20.56° C | 80% | 1008.6 hPa | 0 mm | - | 276 W/m² | - |
| 1777129323 | 20° C | 79% | 1008.8 hPa | 0 mm | - | 249 W/m² | - |
| 1777129018 | 20° C | 80% | 1008.8 hPa | 0 mm | - | 432 W/m² | - |
| 1777128714 | 20° C | 81% | 1008.8 hPa | 0 mm | - | 225 W/m² | - |
| 1777128412 | 19.44° C | 80% | 1008.9 hPa | 0 mm | - | 415 W/m² | - |
| 1777128110 | 18.89° C | 83% | 1009.1 hPa | 0 mm | - | 490 W/m² | - |
| 1777127806 | 18.89° C | 83% | 1008.8 hPa | 0 mm | - | 246 W/m² | - |
| 1777127504 | 18.89° C | 85% | 1008.6 hPa | 0 mm | - | 150 W/m² | - |
| 1777127199 | 19.44° C | 83% | 1008.6 hPa | 0 mm | - | 207 W/m² | - |
| 1777126896 | 19.44° C | 83% | 1008.4 hPa | 0 mm | - | 402 W/m² | - |
| 1777126592 | 19.44° C | 86% | 1008.5 hPa | 0 mm | - | 185 W/m² | - |
| 1777126288 | 19.44° C | 86% | 1008.5 hPa | 0 mm | - | 254 W/m² | - |
| 1777125984 | 19.44° C | 86% | 1008.7 hPa | 0 mm | - | 599 W/m² | - |
| 1777125681 | 18.89° C | 87% | 1008.6 hPa | 0 mm | - | 228 W/m² | - |
| 1777125377 | 18.33° C | 87% | 1008.6 hPa | 0 mm | - | 145 W/m² | - |
| 1777125072 | 18.33° C | 88% | 1008.7 hPa | 0 mm | - | 170 W/m² | - |
| 1777124768 | 18.33° C | 89% | 1008.6 hPa | 0 mm | - | 178 W/m² | - |
| 1777124463 | 17.78° C | 91% | 1008.4 hPa | 0 mm | - | 158 W/m² | - |
| 1777124161 | 17.78° C | 91% | 1008.8 hPa | 0 mm | - | 90 W/m² | - |
| 1777123857 | 17.78° C | 92% | 1008.6 hPa | 0 mm | - | 108 W/m² | - |
| 1777123553 | 17.78° C | 92% | 1008.6 hPa | 0 mm | - | 114 W/m² | - |
| 1777123250 | 17.78° C | 93% | 1008.8 hPa | 0 mm | - | 145 W/m² | - |
| 1777122946 | 17.78° C | 93% | 1008.5 hPa | 0 mm | - | 125 W/m² | - |
| 1777122642 | 17.78° C | 94% | 1008.7 hPa | 0 mm | - | 86 W/m² | - |
| 1777122338 | 17.78° C | 94% | 1008.7 hPa | 0 mm | - | 89 W/m² | - |
* Rain latest hour (hover to see other rain measurements)
** Current wind speed in m/s (hover to see current wind gust speed)